EW2812 Weather Reports


Display with metric or nautical units.
time (UTC)temp
F
wind
direction
speed
MPH
gust
MPH
rain 1hr
in
rain 24hr
in
rain mn
in
humidity
%
barometer
mb
20260510101533 0 37 0.0 0.0 0.00 0.00 0.00 1016.3
20260510100026 0 46 0.0 0.0 0.00 0.00 0.00 1016.4
20260510094523 0 51 0.0 0.0 0.00 0.00 0.00 1016.4
20260510093027 0 17 0.0 0.0 0.00 0.00 0.00 1016.4
20260510091515 0 317 0.0 0.0 0.00 0.00 0.00 1016.6
20260510090011 0 30 0.0 0.0 0.00 0.00 0.00 1016.7
20260510084505 0 15 0.0 0.0 0.00 0.00 0.00 1016.8
20260510083111 0 340 0.0 0.0 0.00 0.00 0.00 1016.7
20260510081608 0 345 0.0 0.0 0.00 0.00 0.00 1016.7
20260510080054 0 76 0.0 0.0 0.00 0.00 0.00 1016.8
20260510074603 0 30 0.0 0.0 0.00 0.00 0.00 1016.7
20260510073052 0 315 0.0 0.0 0.00 0.00 0.00 1016.7
20260510071547 0 309 0.0 0.0 0.00 0.00 0.00 1016.8
20260510070043 0 22 0.0 0.0 0.00 0.00 0.00 1016.7
20260510064540 0 321 0.0 0.0 0.00 0.00 0.00 1016.7
20260510063033 0 5 0.0 0.0 0.00 0.00 0.00 1016.7
20260510061528 0 355 0.0 0.0 0.00 0.00 0.00 1016.5
20260510060025 0 119 0.0 0.0 0.00 0.00 0.00 1016.4
20260510054524 0 355 0.0 0.0 0.00 0.00 0.00 1016.5
20260510053018 0 348 0.0 0.0 0.00 0.00 0.00 1016.7
20260510051514 0 26 0.0 0.0 0.00 0.00 0.00 1016.7
20260510050009 0 9 0.0 0.0 0.00 0.00 0.00 1016.6
20260510044638 0 36 0.0 0.0 0.00 0.00 0.00 1016.6
20260510043056 0 74 0.0 0.0 0.00 0.00 0.00 1016.7
20260510041552 0 355 0.0 0.0 0.00 0.00 0.00 1016.6
20260510040047 0 355 0.0 0.0 0.00 0.00 0.00 1016.7
20260510034548 0 35 0.0 0.0 0.00 0.00 0.00 1016.8
20260510033044 0 49 0.0 0.0 0.00 0.00 0.00 1016.9
20260510031541 0 313 0.0 0.0 0.00 0.00 0.00 1016.9
20260510030039 0 63 0.0 0.0 0.00 0.00 0.00 1016.9
20260510024538 0 65 0.0 0.0 0.00 0.00 0.00 1017.0
20260510023032 0 328 0.0 0.0 0.00 0.00 0.00 1016.8
20260510021529 0 16 0.0 0.0 0.00 0.00 0.00 1016.9
20260510020027 0 26 0.0 0.0 0.00 0.00 0.00 1017.0
20260510014514 0 346 0.0 0.0 0.00 0.00 0.00 1017.0
20260510013010 0 304 0.0 0.0 0.00 0.00 0.00 1017.1
20260510011509 0 22 0.0 0.0 0.00 0.00 0.00 1017.0
20260510010002 0 360 0.0 0.0 0.00 0.00 0.00 1017.0
20260510004607 0 296 0.0 0.0 0.00 0.00 0.00 1017.1
20260510003057 0 290 0.0 0.0 0.00 0.00 0.00 1016.9
20260510001550 0 283 0.0 0.0 0.00 0.00 0.00 1017.1
20260510000048 0 0.0 0.0 0.00 0.00 0.00 1017.1
20260509234602 0 0.0 0.0 0.00 0.00 0.00 1017.3
20260509233044 0 0.0 0.0 0.00 0.00 0.00 1017.3
20260509231540 0 0.0 0.0 0.00 0.00 0.00 1017.3
20260509230035 0 0.0 0.0 0.00 0.00 0.00 1017.4
20260509224538 0 0.0 0.0 0.00 0.00 0.00 1017.3
20260509223030 0 0.0 0.0 0.00 0.00 0.00 1017.3
20260509221528 0 61 0.0 0.0 0.00 0.00 0.00 1017.4
20260509220016 0 61 0.0 0.0 0.00 0.00 0.00 1017.4
20260509214512 0 59 0.0 0.0 0.00 0.00 0.00 1017.4
20260509213008 0 75 0.0 0.0 0.00 0.00 0.00 1017.5
20260509211504 0 75 0.0 0.0 0.00 0.00 0.00 1017.5
20260509210100 0 75 0.0 0.0 0.00 0.00 0.00 1017.3
20260509204601 0 77 0.0 0.0 0.00 0.00 0.00 1017.2
20260509203114 0 77 0.0 0.0 0.00 0.00 0.00 1017.2
20260509201556 0 77 0.0 0.0 0.00 0.00 0.00 1017.2
20260509200053 0 77 0.0 0.0 0.00 0.00 0.00 1017.0
20260509194540 0 77 0.0 0.0 0.00 0.00 0.00 1017.0
20260509193035 0 82 0.0 0.0 0.00 0.00 0.00 1016.7
20260509191534 0 355 0.0 0.0 0.00 0.00 0.00 1016.7
20260509190027 0 27 0.0 0.0 0.00 0.00 0.00 1016.7
20260509184526 0 13 0.0 0.0 0.00 0.00 0.00 1016.7
20260509183015 0 53 0.0 0.0 0.00 0.00 0.00 1016.7
20260509181509 0 51 0.0 0.0 0.00 0.00 0.00 1016.7
20260509180006 0 28 0.0 0.0 0.00 0.00 0.00 1016.5
20260509174512 0 44 0.0 0.0 0.00 0.00 0.00 1016.6
20260509173006 0 22 0.0 0.0 0.00 0.00 0.00 1016.4
20260509171502 0 5 0.0 0.0 0.00 0.00 0.00 1016.5
20260509170100 0 82 0.0 0.0 0.00 0.00 0.00 1016.5
20260509164600 0 49 0.0 0.0 0.00 0.00 0.00 1016.6
20260509163045 0 55 0.0 0.0 0.00 0.00 0.00 1016.5
20260509161545 0 5 0.0 0.0 0.00 0.00 0.00 1016.6
20260509160038 0 49 0.0 0.0 0.00 0.00 0.00 1016.8
20260509154540 0 41 0.0 0.0 0.00 0.00 0.00 1016.9
20260509153038 0 5 0.0 0.0 0.00 0.00 0.00 1017.0
20260509151532 0 117 0.0 0.0 0.00 0.00 0.00 1017.0
20260509150028 0 90 0.0 0.0 0.00 0.00 0.00 1016.8
20260509144529 0 59 0.0 0.0 0.00 0.00 0.00 1016.8
20260509143017 0 27 0.0 0.0 0.00 0.00 0.00 1016.6
20260509141511 0 68 0.0 0.0 0.00 0.00 0.00 1016.5
20260509140006 0 83 0.0 0.0 0.00 0.00 0.00 1016.6
20260509134601 0 86 0.0 0.0 0.00 0.00 0.00 1016.6
20260509133103 0 71 0.0 0.0 0.00 0.00 0.00 1016.7
20260509131556 0 343 0.0 0.0 0.00 0.00 0.00 1016.7
20260509130059 0 63 0.0 0.0 0.00 0.00 0.00 1016.9
20260509124546 0 329 0.0 0.0 0.00 0.00 0.00 1017.0
20260509123049 0 73 0.0 0.0 0.00 0.00 0.00 1017.1
20260509121537 0 49 0.0 0.0 0.00 0.00 0.00 1017.1
20260509120035 0 36 0.0 0.0 0.00 0.00 0.00 1017.3
20260509114538 0 340 0.0 0.0 0.00 0.00 0.00 1017.3
20260509113031 0 86 0.0 0.0 0.00 0.00 0.00 1017.5
20260509111526 0 346 0.0 0.0 0.00 0.00 0.00 1017.6
20260509110024 0 103 0.0 0.0 0.00 0.00 0.00 1017.7
20260509104519 0 71 0.0 0.0 0.00 0.00 0.00 1017.9
20260509103017 0 74 0.0 0.0 0.00 0.00 0.00 1017.8